Meadville, PA

7:22 AM EDT on April 30, 2017 (GMT -0400)
Port Meadville

Weather History for KGKJ - November, 2013

Change the Weather History Date:

Thursday, November 7, 2013

  Actual Average Record
Temperature  
Mean Temperature 45 °F -  
Max Temperature 57 °F 47 °F 74 °F (1975)
Min Temperature 33 °F 33 °F 20 °F (1960)
Degree Days  
Heating Degree Days 20    
Moisture  
Dew Point 35 °F    
Average Humidity 81    
Maximum Humidity 96    
Minimum Humidity 58    
Precipitation  
Precipitation 0.41 in - - ()
Sea Level Pressure  
Sea Level Pressure 30.01 in    
Wind  
Wind Speed 10 mph (West)    
Max Wind Speed 18 mph    
Max Gust Speed 28 mph    
Visibility 8 miles    
Events Rain , Snow    
Averages and records for this station are not official NWS values.
T = Trace of Precipitation, MM = Missing Value Source: NWS Daily Summary

Daily Weather History Graph

Daily Weather History Graph

Search for Another Location

Airport or City:

Trip Planner

Search our weather history database for the weather conditions in past years. The results will help you decide how hot, cold, wet, or windy it might be!

Date:

Astronomy

Nov. 07, 2013 Rise Set
Actual Time 7:00 AM EST 5:08 PM EST
Civil Twilight 6:31 AM EST 5:37 PM EST
Nautical Twilight 5:57 AM EST 6:10 PM EST
Astronomical Twilight 5:25 AM EST 6:43 PM EST
Moon 11:08 AM EST (11/7) 9:17 PM EST (11/7)
Length of Visible Light 11h 06m
Length of Day
10h 07m
Waxing Crescent, 22% of the Moon is Illuminated
Nov 7
Waxing Crescent
Nov 10
First Quarter
Nov 17
Full
Nov 25
Last Quarter
Dec 2
New

Hourly Weather History & Observations

Time (EST) Temp. Windchill Dew Point Humidity Pressure Visibility Wind Dir Wind Speed Gust Speed Precip Events Conditions
12:07 AM 57.2 °F - 53.6 °F 88% 29.88 in 3.0 mi West 12.7 mph 24.2 mph 0.11 in Rain Rain
12:53 AM 54.0 °F - 52.0 °F 93% 29.87 in 8.0 mi West 11.5 mph 20.7 mph 0.16 in Rain Rain
1:53 AM 48.9 °F - 46.0 °F 90% 29.91 in 10.0 mi WNW 15.0 mph 25.3 mph 0.09 in Rain Light Rain
2:00 AM 48.2 °F - 44.6 °F 87% 29.91 in 10.0 mi WNW 10.4 mph 25.3 mph 0.00 in Rain Light Rain
2:12 AM 48.2 °F - 44.6 °F 87% 29.91 in 10.0 mi WNW 6.9 mph 19.6 mph 0.01 in Rain Light Rain
2:48 AM 46.4 °F 41.5 °F 42.8 °F 87% 29.92 in 10.0 mi NW 10.4 mph 17.3 mph 0.05 in Rain Light Rain
2:53 AM 46.0 °F 41.9 °F 43.0 °F 89% 29.92 in 10.0 mi NW 8.1 mph - 0.06 in Rain Light Rain
3:22 AM 44.6 °F 39.7 °F 42.8 °F 93% 29.91 in 10.0 mi NW 9.2 mph - 0.01 in Rain Light Rain
3:53 AM 45.0 °F 39.7 °F 43.0 °F 93% 29.93 in 9.0 mi NW 10.4 mph - 0.03 in Rain Light Rain
4:22 AM 44.6 °F 40.2 °F 41.0 °F 87% 29.93 in 10.0 mi NNW 8.1 mph 18.4 mph 0.03 in Rain Light Rain
4:31 AM 42.8 °F 38.0 °F 41.0 °F 93% 29.93 in 10.0 mi NW 8.1 mph - 0.03 in Rain Light Rain
4:53 AM 43.0 °F 38.8 °F 39.9 °F 89% 29.94 in 10.0 mi NW 6.9 mph - 0.03 in   Overcast
5:53 AM 42.1 °F 37.1 °F 39.0 °F 89% 29.97 in 10.0 mi WNW 8.1 mph - N/A   Overcast
6:53 AM 42.1 °F 38.4 °F 37.9 °F 85% 29.98 in 10.0 mi Variable 5.8 mph - N/A   Overcast
7:42 AM 41.0 °F 34.3 °F 35.6 °F 81% 30.00 in 10.0 mi NW 11.5 mph 16.1 mph N/A   Overcast
7:53 AM 41.0 °F 34.7 °F 35.1 °F 79% 30.01 in 10.0 mi NW 10.4 mph 17.3 mph 0.00 in Rain Light Rain
8:28 AM 39.2 °F 32.0 °F 35.6 °F 87% 30.02 in 7.0 mi WNW 11.5 mph 18.4 mph 0.00 in Rain Light Rain
8:53 AM 39.9 °F 35.1 °F 35.1 °F 83% 30.04 in 10.0 mi WNW 6.9 mph 17.3 mph 0.01 in   Overcast
9:53 AM 44.1 °F 39.0 °F 34.0 °F 68% 30.04 in 10.0 mi WNW 9.2 mph - N/A   Mostly Cloudy
10:53 AM 42.1 °F 36.6 °F 28.9 °F 60% 30.05 in 10.0 mi WNW 9.2 mph - N/A   Overcast
11:53 AM 43.0 °F 38.8 °F 28.9 °F 58% 30.04 in 10.0 mi Variable 6.9 mph - N/A   Overcast
12:53 PM 42.1 °F 36.6 °F 30.0 °F 62% 30.03 in 10.0 mi West 9.2 mph - N/A   Overcast
1:11 PM 39.2 °F 32.5 °F 32.0 °F 75% 30.02 in 10.0 mi WSW 10.4 mph - N/A   Overcast
1:53 PM 37.0 °F 27.0 °F 33.1 °F 86% 30.05 in 5.0 mi West 18.4 mph 27.6 mph 0.01 in Rain Light Rain
2:53 PM 37.9 °F 28.9 °F 28.9 °F 70% 30.05 in 10.0 mi West 16.1 mph 23.0 mph 0.00 in   Overcast
3:15 PM 37.4 °F 27.8 °F 28.4 °F 70% 30.03 in 10.0 mi West 17.3 mph 26.5 mph N/A   Overcast
3:53 PM 37.9 °F 29.6 °F 27.0 °F 65% 30.06 in 10.0 mi West 13.8 mph 21.9 mph N/A   Overcast
4:53 PM 37.0 °F 29.8 °F 26.1 °F 65% 30.07 in 10.0 mi West 10.4 mph - N/A   Overcast
5:53 PM 36.0 °F 30.3 °F 27.0 °F 70% 30.08 in 10.0 mi West 6.9 mph - N/A   Overcast
6:53 PM 37.0 °F 30.4 °F 26.1 °F 65% 30.10 in 10.0 mi WNW 9.2 mph - N/A   Overcast
7:53 PM 37.0 °F 33.3 °F 26.1 °F 65% 30.10 in 10.0 mi West 4.6 mph - N/A   Overcast
8:53 PM 37.0 °F - 27.0 °F 67% 30.09 in 10.0 mi Calm Calm - N/A   Overcast
9:53 PM 36.0 °F 31.1 °F 28.0 °F 73% 30.09 in 7.0 mi SW 5.8 mph - 0.00 in Snow Light Snow
10:06 PM 33.8 °F 28.6 °F 30.2 °F 87% 30.06 in 2.0 mi SW 5.8 mph - 0.00 in Snow Light Snow
10:13 PM 33.8 °F 29.6 °F 30.2 °F 87% 30.05 in 3.0 mi SW 4.6 mph - 0.00 in Snow Light Snow
10:24 PM 33.8 °F 27.0 °F 30.2 °F 87% 30.06 in 6.0 mi SW 8.1 mph - 0.00 in Snow Light Snow
10:33 PM 33.8 °F 27.7 °F 30.2 °F 87% 30.06 in 4.0 mi WSW 6.9 mph - 0.01 in Snow Light Snow
10:53 PM 33.1 °F 28.7 °F 32.0 °F 96% 30.08 in 2.0 mi SW 4.6 mph - 0.01 in Snow Light Snow
11:01 PM 33.8 °F 30.8 °F 32.0 °F 93% 30.05 in 1.8 mi SW 3.5 mph - 0.00 in Snow Light Snow
11:05 PM 33.8 °F 29.6 °F 32.0 °F 93% 30.05 in 3.0 mi WSW 4.6 mph - 0.00 in Snow Light Snow
11:22 PM 33.8 °F 28.6 °F 32.0 °F 93% 30.04 in 5.0 mi SW 5.8 mph - 0.01 in Snow Light Snow
11:53 PM 33.1 °F 27.7 °F 32.0 °F 96% 30.07 in 2.0 mi WSW 5.8 mph - 0.01 in Snow Light Snow